owner,sensor,date,latitude,longitude,vertical_datum,sea_water_practical_salinity,qcFlag 
ENP,ioos.station.NOAA.NDBC:JKYF1:1,2016-01-01T00:00:00Z,25.0530,-80.9040,1.5,37.2,1111122 
ENP,ioos.station.NOAA.NDBC:JKYF1:1,2016-01-01T01:00:00Z,25.0530,-80.9040,1.5,37.06,1111122 
ENP,ioos.station.NOAA.NDBC:JKYF1:1,2016-01-01T02:00:00Z,25.0530,-80.9040,1.5,37.03,1111122 
ENP,ioos.station.NOAA.NDBC:JKYF1:1,2016-01-01T04:00:00Z,25.0530,-80.9040,1.5,37.04,1111122 
ENP,ioos.station.NOAA.NDBC:JKYF1:1,2016-01-04T10:00:00Z,25.0530,-80.9040,1.5,37.57,1111122 
ENP,ioos.station.NOAA.NDBC:JKYF1:1,2016-01-04T11:00:00Z,25.0530,-80.9040,1.5,37.56,1111122 
ENP,ioos.station.NOAA.NDBC:JKYF1:1,2016-01-04T12:00:00Z,25.0530,-80.9040,1.5,37.55,1111122 
ENP,ioos.station.NOAA.NDBC:JKYF1:1,2016-01-04T13:00:00Z,25.0530,-80.9040,1.5,37.53,1111122 
ENP,ioos.station.NOAA.NDBC:JKYF1:1,2016-01-04T14:00:00Z,25.0530,-80.9040,1.5,37.52,1111122 
ENP,ioos.station.NOAA.NDBC:JKYF1:1,2016-01-04T15:00:00Z,25.0530,-80.9040,1.5,37.51,1111122 
ENP,ioos.station.NOAA.NDBC:JKYF1:1,2016-01-04T16:00:00Z,25.0530,-80.9040,1.5,37.5,1111122 
ENP,ioos.station.NOAA.NDBC:JKYF1:1,2016-01-04T17:00:00Z,25.0530,-80.9040,1.5,37.48,1111122 
ENP,ioos.station.NOAA.NDBC:JKYF1:1,2016-01-04T18:00:00Z,25.0530,-80.9040,1.5,37.5,1111122 
ENP,ioos.station.NOAA.NDBC:JKYF1:1,2016-01-04T19:00:00Z,25.0530,-80.9040,1.5,37.47,1111122 
ENP,ioos.station.NOAA.NDBC:JKYF1:1,2016-01-04T20:00:00Z,25.0530,-80.9040,1.5,37.46,1111122 
ENP,ioos.station.NOAA.NDBC:JKYF1:1,2016-01-04T21:00:00Z,25.0530,-80.9040,1.5,37.47,1111122 
ENP,ioos.station.NOAA.NDBC:JKYF1:1,2016-01-04T22:00:00Z,25.0530,-80.9040,1.5,37.48,1111122 
ENP,ioos.station.NOAA.NDBC:JKYF1:1,2016-01-04T23:00:00Z,25.0530,-80.9040,1.5,37.5,1111122 
ENP,ioos.station.NOAA.NDBC:JKYF1:1,2016-01-05T00:00:00Z,25.0530,-80.9040,1.5,37.48,1111122 
ENP,ioos.station.NOAA.NDBC:JKYF1:1,2016-01-05T01:00:00Z,25.0530,-80.9040,1.5,37.49,1111122 
ENP,ioos.station.NOAA.NDBC:JKYF1:1,2016-01-05T02:00:00Z,25.0530,-80.9040,1.5,37.5,1111122 
ENP,ioos.station.NOAA.NDBC:JKYF1:1,2016-01-05T04:00:00Z,25.0530,-80.9040,1.5,37.51,1111122 
ENP,ioos.station.NOAA.NDBC:JKYF1:1,2016-01-05T05:00:00Z,25.0530,-80.9040,1.5,37.52,1111122 
ENP,ioos.station.NOAA.NDBC:JKYF1:1,2016-01-05T07:00:00Z,25.0530,-80.9040,1.5,37.53,1111122 
ENP,ioos.station.NOAA.NDBC:JKYF1:1,2016-01-05T08:00:00Z,25.0530,-80.9040,1.5,37.52,1111122 
ENP,ioos.station.NOAA.NDBC:JKYF1:1,2016-01-05T09:00:00Z,25.0530,-80.9040,1.5,37.52,1111122 
ENP,ioos.station.NOAA.NDBC:JKYF1:1,2016-01-05T10:00:00Z,25.0530,-80.9040,1.5,37.53,1111122 
ENP,ioos.station.NOAA.NDBC:JKYF1:1,2016-01-05T11:00:00Z,25.0530,-80.9040,1.5,37.52,1111122 
ENP,ioos.station.NOAA.NDBC:JKYF1:1,2016-01-05T14:00:00Z,25.0530,-80.9040,1.5,37.54,1111122 
ENP,ioos.station.NOAA.NDBC:JKYF1:1,2016-01-07T14:00:00Z,25.0530,-80.9040,1.5,37.26,1111122 
ENP,ioos.station.NOAA.NDBC:JKYF1:1,2016-01-07T15:00:00Z,25.0530,-80.9040,1.5,37.24,1111122 
ENP,ioos.station.NOAA.NDBC:JKYF1:1,2016-01-07T16:00:00Z,25.0530,-80.9040,1.5,37.24,1111122 
ENP,ioos.station.NOAA.NDBC:JKYF1:1,2016-01-07T17:00:00Z,25.0530,-80.9040,1.5,37.19,1111122 
ENP,ioos.station.NOAA.NDBC:JKYF1:1,2016-01-07T18:00:00Z,25.0530,-80.9040,1.5,37.21,1111122 
ENP,ioos.station.NOAA.NDBC:JKYF1:1,2016-01-07T19:00:00Z,25.0530,-80.9040,1.5,37.35,1111122 
ENP,ioos.station.NOAA.NDBC:JKYF1:1,2016-01-07T20:00:00Z,25.0530,-80.9040,1.5,37.06,1111122 
ENP,ioos.station.NOAA.NDBC:JKYF1:1,2016-01-07T21:00:00Z,25.0530,-80.9040,1.5,36.85,1111122 
ENP,ioos.station.NOAA.NDBC:JKYF1:1,2016-01-07T22:00:00Z,25.0530,-80.9040,1.5,36.85,1111122 
ENP,ioos.station.NOAA.NDBC:JKYF1:1,2016-01-07T23:00:00Z,25.0530,-80.9040,1.5,36.76,1111122 
ENP,ioos.station.NOAA.NDBC:JKYF1:1,2016-01-08T00:00:00Z,25.0530,-80.9040,1.5,36.7,1111122 
ENP,ioos.station.NOAA.NDBC:JKYF1:1,2016-01-08T01:00:00Z,25.0530,-80.9040,1.5,36.7,1111122 
ENP,ioos.station.NOAA.NDBC:JKYF1:1,2016-01-08T02:00:00Z,25.0530,-80.9040,1.5,36.74,1111122 
ENP,ioos.station.NOAA.NDBC:JKYF1:1,2016-01-08T03:00:00Z,25.0530,-80.9040,1.5,36.79,1111122 
ENP,ioos.station.NOAA.NDBC:JKYF1:1,2016-01-08T04:00:00Z,25.0530,-80.9040,1.5,37.08,1111122 
ENP,ioos.station.NOAA.NDBC:JKYF1:1,2016-01-08T06:00:00Z,25.0530,-80.9040,1.5,36.68,1111122 
ENP,ioos.station.NOAA.NDBC:JKYF1:1,2016-01-08T07:00:00Z,25.0530,-80.9040,1.5,36.5,1111122 
ENP,ioos.station.NOAA.NDBC:JKYF1:1,2016-01-08T08:00:00Z,25.0530,-80.9040,1.5,36.45,1111122 
ENP,ioos.station.NOAA.NDBC:JKYF1:1,2016-01-08T09:00:00Z,25.0530,-80.9040,1.5,36.41,1111122 
ENP,ioos.station.NOAA.NDBC:JKYF1:1,2016-01-08T10:00:00Z,25.0530,-80.9040,1.5,36.39,1111122 
ENP,ioos.station.NOAA.NDBC:JKYF1:1,2016-01-08T11:00:00Z,25.0530,-80.9040,1.5,36.4,1111122 
ENP,ioos.station.NOAA.NDBC:JKYF1:1,2016-01-08T12:00:00Z,25.0530,-80.9040,1.5,36.42,1111122 
ENP,ioos.station.NOAA.NDBC:JKYF1:1,2016-01-08T13:00:00Z,25.0530,-80.9040,1.5,36.48,1111122 
ENP,ioos.station.NOAA.NDBC:JKYF1:1,2016-01-08T14:00:00Z,25.0530,-80.9040,1.5,36.53,1111122 
ENP,ioos.station.NOAA.NDBC:JKYF1:1,2016-01-08T15:00:00Z,25.0530,-80.9040,1.5,36.57,1111122 
ENP,ioos.station.NOAA.NDBC:JKYF1:1,2016-01-08T16:00:00Z,25.0530,-80.9040,1.5,36.62,1111122 
ENP,ioos.station.NOAA.NDBC:JKYF1:1,2016-01-08T17:00:00Z,25.0530,-80.9040,1.5,36.63,1111122 
ENP,ioos.station.NOAA.NDBC:JKYF1:1,2016-01-08T18:00:00Z,25.0530,-80.9040,1.5,36.69,1111122 
ENP,ioos.station.NOAA.NDBC:JKYF1:1,2016-01-08T19:00:00Z,25.0530,-80.9040,1.5,36.77,1111122 
ENP,ioos.station.NOAA.NDBC:JKYF1:1,2016-01-08T20:00:00Z,25.0530,-80.9040,1.5,36.8,1111122 
ENP,ioos.station.NOAA.NDBC:JKYF1:1,2016-01-08T21:00:00Z,25.0530,-80.9040,1.5,36.52,1111122 
ENP,ioos.station.NOAA.NDBC:JKYF1:1,2016-01-08T22:00:00Z,25.0530,-80.9040,1.5,36.52,1111122 
ENP,ioos.station.NOAA.NDBC:JKYF1:1,2016-01-08T23:00:00Z,25.0530,-80.9040,1.5,36.44,1111122 
ENP,ioos.station.NOAA.NDBC:JKYF1:1,2016-01-09T00:00:00Z,25.0530,-80.9040,1.5,36.36,1111122 
ENP,ioos.station.NOAA.NDBC:JKYF1:1,2016-01-09T01:00:00Z,25.0530,-80.9040,1.5,36.36,1111122 
ENP,ioos.station.NOAA.NDBC:JKYF1:1,2016-01-09T02:00:00Z,25.0530,-80.9040,1.5,36.38,1111122 
ENP,ioos.station.NOAA.NDBC:JKYF1:1,2016-01-09T03:00:00Z,25.0530,-80.9040,1.5,36.42,1111122 
ENP,ioos.station.NOAA.NDBC:JKYF1:1,2016-01-09T04:00:00Z,25.0530,-80.9040,1.5,36.45,1111122 
ENP,ioos.station.NOAA.NDBC:JKYF1:1,2016-01-09T06:00:00Z,25.0530,-80.9040,1.5,36.67,1111122 
ENP,ioos.station.NOAA.NDBC:JKYF1:1,2016-01-09T07:00:00Z,25.0530,-80.9040,1.5,36.37,1111122 
ENP,ioos.station.NOAA.NDBC:JKYF1:1,2016-01-09T08:00:00Z,25.0530,-80.9040,1.5,36.31,1111122 
ENP,ioos.station.NOAA.NDBC:JKYF1:1,2016-01-09T09:00:00Z,25.0530,-80.9040,1.5,36.28,1111122 
ENP,ioos.station.NOAA.NDBC:JKYF1:1,2016-01-09T10:00:00Z,25.0530,-80.9040,1.5,36.28,1111122 
ENP,ioos.station.NOAA.NDBC:JKYF1:1,2016-01-09T11:00:00Z,25.0530,-80.9040,1.5,36.28,1111122 
ENP,ioos.station.NOAA.NDBC:JKYF1:1,2016-01-09T12:00:00Z,25.0530,-80.9040,1.5,36.28,1111122 
ENP,ioos.station.NOAA.NDBC:JKYF1:1,2016-01-09T13:00:00Z,25.0530,-80.9040,1.5,36.28,1111122 
ENP,ioos.station.NOAA.NDBC:JKYF1:1,2016-01-09T14:00:00Z,25.0530,-80.9040,1.5,36.31,1111122 
ENP,ioos.station.NOAA.NDBC:JKYF1:1,2016-01-09T15:00:00Z,25.0530,-80.9040,1.5,36.33,1111122 
ENP,ioos.station.NOAA.NDBC:JKYF1:1,2016-01-09T16:00:00Z,25.0530,-80.9040,1.5,36.32,1111122 
ENP,ioos.station.NOAA.NDBC:JKYF1:1,2016-01-09T17:00:00Z,25.0530,-80.9040,1.5,36.36,1111122 
ENP,ioos.station.NOAA.NDBC:JKYF1:1,2016-01-09T18:00:00Z,25.0530,-80.9040,1.5,36.35,1111122 
ENP,ioos.station.NOAA.NDBC:JKYF1:1,2016-01-09T19:00:00Z,25.0530,-80.9040,1.5,36.43,1111122 
ENP,ioos.station.NOAA.NDBC:JKYF1:1,2016-01-09T20:00:00Z,25.0530,-80.9040,1.5,36.48,1111122 
ENP,ioos.station.NOAA.NDBC:JKYF1:1,2016-01-09T21:00:00Z,25.0530,-80.9040,1.5,36.41,1111122 
ENP,ioos.station.NOAA.NDBC:JKYF1:1,2016-01-09T22:00:00Z,25.0530,-80.9040,1.5,36.34,1111122 
ENP,ioos.station.NOAA.NDBC:JKYF1:1,2016-01-09T23:00:00Z,25.0530,-80.9040,1.5,36.32,1111122 
ENP,ioos.station.NOAA.NDBC:JKYF1:1,2016-01-10T00:00:00Z,25.0530,-80.9040,1.5,36.3,1111122 
ENP,ioos.station.NOAA.NDBC:JKYF1:1,2016-01-10T01:00:00Z,25.0530,-80.9040,1.5,36.3,1111122 
ENP,ioos.station.NOAA.NDBC:JKYF1:1,2016-01-10T02:00:00Z,25.0530,-80.9040,1.5,36.31,1111122 
ENP,ioos.station.NOAA.NDBC:JKYF1:1,2016-01-10T03:00:00Z,25.0530,-80.9040,1.5,36.31,1111122 
ENP,ioos.station.NOAA.NDBC:JKYF1:1,2016-01-10T04:00:00Z,25.0530,-80.9040,1.5,36.32,1111122 
ENP,ioos.station.NOAA.NDBC:JKYF1:1,2016-01-10T06:00:00Z,25.0530,-80.9040,1.5,36.42,1111122 
ENP,ioos.station.NOAA.NDBC:JKYF1:1,2016-01-10T07:00:00Z,25.0530,-80.9040,1.5,36.34,1111122 
ENP,ioos.station.NOAA.NDBC:JKYF1:1,2016-01-10T08:00:00Z,25.0530,-80.9040,1.5,36.2,1111122 
ENP,ioos.station.NOAA.NDBC:JKYF1:1,2016-01-10T09:00:00Z,25.0530,-80.9040,1.5,36.14,1111122 
ENP,ioos.station.NOAA.NDBC:JKYF1:1,2016-01-10T11:00:00Z,25.0530,-80.9040,1.5,36.09,1111122 
ENP,ioos.station.NOAA.NDBC:JKYF1:1,2016-01-10T12:00:00Z,25.0530,-80.9040,1.5,36.08,1111122 
ENP,ioos.station.NOAA.NDBC:JKYF1:1,2016-01-10T13:00:00Z,25.0530,-80.9040,1.5,36.09,1111122 
ENP,ioos.station.NOAA.NDBC:JKYF1:1,2016-01-10T14:00:00Z,25.0530,-80.9040,1.5,36.1,1111122 
ENP,ioos.station.NOAA.NDBC:JKYF1:1,2016-01-10T15:00:00Z,25.0530,-80.9040,1.5,36.11,1111122 
ENP,ioos.station.NOAA.NDBC:JKYF1:1,2016-01-10T17:00:00Z,25.0530,-80.9040,1.5,36.17,1111122 
ENP,ioos.station.NOAA.NDBC:JKYF1:1,2016-01-10T18:00:00Z,25.0530,-80.9040,1.5,36.22,1111122 
ENP,ioos.station.NOAA.NDBC:JKYF1:1,2016-01-10T19:00:00Z,25.0530,-80.9040,1.5,36.22,1111122 
ENP,ioos.station.NOAA.NDBC:JKYF1:1,2016-01-10T20:00:00Z,25.0530,-80.9040,1.5,36.24,1111122 
ENP,ioos.station.NOAA.NDBC:JKYF1:1,2016-01-10T21:00:00Z,25.0530,-80.9040,1.5,36.19,1111122 
ENP,ioos.station.NOAA.NDBC:JKYF1:1,2016-01-10T22:00:00Z,25.0530,-80.9040,1.5,36.08,1111122 
ENP,ioos.station.NOAA.NDBC:JKYF1:1,2016-01-10T23:00:00Z,25.0530,-80.9040,1.5,36.08,1111122 
ENP,ioos.station.NOAA.NDBC:JKYF1:1,2016-01-11T00:00:00Z,25.0530,-80.9040,1.5,36.08,1111122 
ENP,ioos.station.NOAA.NDBC:JKYF1:1,2016-01-11T01:00:00Z,25.0530,-80.9040,1.5,36.08,1111122 
ENP,ioos.station.NOAA.NDBC:JKYF1:1,2016-01-11T02:00:00Z,25.0530,-80.9040,1.5,36.08,1111122 
ENP,ioos.station.NOAA.NDBC:JKYF1:1,2016-01-11T03:00:00Z,25.0530,-80.9040,1.5,36.09,1111122 
ENP,ioos.station.NOAA.NDBC:JKYF1:1,2016-01-11T04:00:00Z,25.0530,-80.9040,1.5,36.1,1111122 
ENP,ioos.station.NOAA.NDBC:JKYF1:1,2016-01-11T05:00:00Z,25.0530,-80.9040,1.5,36.11,1111122 
ENP,ioos.station.NOAA.NDBC:JKYF1:1,2016-01-11T06:00:00Z,25.0530,-80.9040,1.5,36.14,1111122 
ENP,ioos.station.NOAA.NDBC:JKYF1:1,2016-01-11T07:00:00Z,25.0530,-80.9040,1.5,36.16,1111122 
ENP,ioos.station.NOAA.NDBC:JKYF1:1,2016-01-11T08:00:00Z,25.0530,-80.9040,1.5,36.11,1111122 
ENP,ioos.station.NOAA.NDBC:JKYF1:1,2016-01-11T09:00:00Z,25.0530,-80.9040,1.5,36.11,1111122 
ENP,ioos.station.NOAA.NDBC:JKYF1:1,2016-01-11T10:00:00Z,25.0530,-80.9040,1.5,36.08,1111122 
ENP,ioos.station.NOAA.NDBC:JKYF1:1,2016-01-11T11:00:00Z,25.0530,-80.9040,1.5,36.07,1111122 
ENP,ioos.station.NOAA.NDBC:JKYF1:1,2016-01-11T12:00:00Z,25.0530,-80.9040,1.5,36.08,1111122 
ENP,ioos.station.NOAA.NDBC:JKYF1:1,2016-01-11T13:00:00Z,25.0530,-80.9040,1.5,36.09,1111122 
ENP,ioos.station.NOAA.NDBC:JKYF1:1,2016-01-11T14:00:00Z,25.0530,-80.9040,1.5,36.11,1111122 
ENP,ioos.station.NOAA.NDBC:JKYF1:1,2016-01-11T15:00:00Z,25.0530,-80.9040,1.5,36.14,1111122 
ENP,ioos.station.NOAA.NDBC:JKYF1:1,2016-01-11T16:00:00Z,25.0530,-80.9040,1.5,36.15,1111122 
ENP,ioos.station.NOAA.NDBC:JKYF1:1,2016-01-11T17:00:00Z,25.0530,-80.9040,1.5,36.17,1111122 
ENP,ioos.station.NOAA.NDBC:JKYF1:1,2016-01-11T18:00:00Z,25.0530,-80.9040,1.5,36.19,1111122 
ENP,ioos.station.NOAA.NDBC:JKYF1:1,2016-01-11T19:00:00Z,25.0530,-80.9040,1.5,36.2,1111122 
ENP,ioos.station.NOAA.NDBC:JKYF1:1,2016-01-11T20:00:00Z,25.0530,-80.9040,1.5,36.22,1111122 
ENP,ioos.station.NOAA.NDBC:JKYF1:1,2016-01-11T21:00:00Z,25.0530,-80.9040,1.5,36.25,1111122 
ENP,ioos.station.NOAA.NDBC:JKYF1:1,2016-01-11T22:00:00Z,25.0530,-80.9040,1.5,36.28,1111122 
ENP,ioos.station.NOAA.NDBC:JKYF1:1,2016-01-11T23:00:00Z,25.0530,-80.9040,1.5,36.29,1111122 
ENP,ioos.station.NOAA.NDBC:JKYF1:1,2016-01-12T00:00:00Z,25.0530,-80.9040,1.5,36.27,1111122 
ENP,ioos.station.NOAA.NDBC:JKYF1:1,2016-01-12T01:00:00Z,25.0530,-80.9040,1.5,36.28,1111122 
ENP,ioos.station.NOAA.NDBC:JKYF1:1,2016-01-12T02:00:00Z,25.0530,-80.9040,1.5,36.28,1111122 
ENP,ioos.station.NOAA.NDBC:JKYF1:1,2016-01-12T03:00:00Z,25.0530,-80.9040,1.5,36.29,1111122 
ENP,ioos.station.NOAA.NDBC:JKYF1:1,2016-01-12T04:00:00Z,25.0530,-80.9040,1.5,36.25,1111122 
ENP,ioos.station.NOAA.NDBC:JKYF1:1,2016-01-12T06:00:00Z,25.0530,-80.9040,1.5,36.27,1111122 
ENP,ioos.station.NOAA.NDBC:JKYF1:1,2016-01-12T07:00:00Z,25.0530,-80.9040,1.5,36.25,1111122 
ENP,ioos.station.NOAA.NDBC:JKYF1:1,2016-01-12T08:00:00Z,25.0530,-80.9040,1.5,36.28,1111122 
ENP,ioos.station.NOAA.NDBC:JKYF1:1,2016-01-12T09:00:00Z,25.0530,-80.9040,1.5,36.22,1111122 
ENP,ioos.station.NOAA.NDBC:JKYF1:1,2016-01-12T11:00:00Z,25.0530,-80.9040,1.5,36.17,1111122 
ENP,ioos.station.NOAA.NDBC:JKYF1:1,2016-01-12T12:00:00Z,25.0530,-80.9040,1.5,36.08,1111122 
ENP,ioos.station.NOAA.NDBC:JKYF1:1,2016-01-12T13:00:00Z,25.0530,-80.9040,1.5,36.06,1111122 
ENP,ioos.station.NOAA.NDBC:JKYF1:1,2016-01-12T15:00:00Z,25.0530,-80.9040,1.5,36.07,1111122 
ENP,ioos.station.NOAA.NDBC:JKYF1:1,2016-01-12T17:00:00Z,25.0530,-80.9040,1.5,36.06,1111122 
ENP,ioos.station.NOAA.NDBC:JKYF1:1,2016-01-12T18:00:00Z,25.0530,-80.9040,1.5,36.06,1111122 
ENP,ioos.station.NOAA.NDBC:JKYF1:1,2016-01-12T22:00:00Z,25.0530,-80.9040,1.5,36.08,1111122 
ENP,ioos.station.NOAA.NDBC:JKYF1:1,2016-01-12T23:00:00Z,25.0530,-80.9040,1.5,36.07,1111122 
ENP,ioos.station.NOAA.NDBC:JKYF1:1,2016-01-13T00:00:00Z,25.0530,-80.9040,1.5,36.06,1111122 
ENP,ioos.station.NOAA.NDBC:JKYF1:1,2016-01-13T02:00:00Z,25.0530,-80.9040,1.5,36.04,1111122 
ENP,ioos.station.NOAA.NDBC:JKYF1:1,2016-01-13T03:00:00Z,25.0530,-80.9040,1.5,36.04,1111122 
ENP,ioos.station.NOAA.NDBC:JKYF1:1,2016-01-13T04:00:00Z,25.0530,-80.9040,1.5,36.05,1111122 
ENP,ioos.station.NOAA.NDBC:JKYF1:1,2016-01-13T06:00:00Z,25.0530,-80.9040,1.5,36.1,1111122 
ENP,ioos.station.NOAA.NDBC:JKYF1:1,2016-01-13T07:00:00Z,25.0530,-80.9040,1.5,36.14,1111122 
ENP,ioos.station.NOAA.NDBC:JKYF1:1,2016-01-13T08:00:00Z,25.0530,-80.9040,1.5,36.17,1111122 
ENP,ioos.station.NOAA.NDBC:JKYF1:1,2016-01-13T09:00:00Z,25.0530,-80.9040,1.5,36.19,1111122 
ENP,ioos.station.NOAA.NDBC:JKYF1:1,2016-01-13T10:00:00Z,25.0530,-80.9040,1.5,36.18,1111122 
ENP,ioos.station.NOAA.NDBC:JKYF1:1,2016-01-13T11:00:00Z,25.0530,-80.9040,1.5,36.13,1111122 
ENP,ioos.station.NOAA.NDBC:JKYF1:1,2016-01-13T12:00:00Z,25.0530,-80.9040,1.5,36.13,1111122 
ENP,ioos.station.NOAA.NDBC:JKYF1:1,2016-01-13T13:00:00Z,25.0530,-80.9040,1.5,36.14,1111122 
ENP,ioos.station.NOAA.NDBC:JKYF1:1,2016-01-13T14:00:00Z,25.0530,-80.9040,1.5,36.15,1111122 
ENP,ioos.station.NOAA.NDBC:JKYF1:1,2016-01-13T15:00:00Z,25.0530,-80.9040,1.5,36.19,1111122 
ENP,ioos.station.NOAA.NDBC:JKYF1:1,2016-01-13T17:00:00Z,25.0530,-80.9040,1.5,36.3,1111122 
ENP,ioos.station.NOAA.NDBC:JKYF1:1,2016-01-13T18:00:00Z,25.0530,-80.9040,1.5,36.34,1111122 
ENP,ioos.station.NOAA.NDBC:JKYF1:1,2016-01-13T19:00:00Z,25.0530,-80.9040,1.5,36.39,1111122 
ENP,ioos.station.NOAA.NDBC:JKYF1:1,2016-01-13T20:00:00Z,25.0530,-80.9040,1.5,36.42,1111122 
ENP,ioos.station.NOAA.NDBC:JKYF1:1,2016-01-13T21:00:00Z,25.0530,-80.9040,1.5,36.45,1111122 
ENP,ioos.station.NOAA.NDBC:JKYF1:1,2016-01-13T22:00:00Z,25.0530,-80.9040,1.5,36.45,1111122 
ENP,ioos.station.NOAA.NDBC:JKYF1:1,2016-01-13T23:00:00Z,25.0530,-80.9040,1.5,36.43,1111122 
ENP,ioos.station.NOAA.NDBC:JKYF1:1,2016-01-14T00:00:00Z,25.0530,-80.9040,1.5,36.35,1111122 
ENP,ioos.station.NOAA.NDBC:JKYF1:1,2016-01-14T01:00:00Z,25.0530,-80.9040,1.5,36.34,1111122 
ENP,ioos.station.NOAA.NDBC:JKYF1:1,2016-01-14T02:00:00Z,25.0530,-80.9040,1.5,36.34,1111122 
ENP,ioos.station.NOAA.NDBC:JKYF1:1,2016-01-14T03:00:00Z,25.0530,-80.9040,1.5,36.35,1111122 
ENP,ioos.station.NOAA.NDBC:JKYF1:1,2016-01-14T04:00:00Z,25.0530,-80.9040,1.5,36.37,1111122 
ENP,ioos.station.NOAA.NDBC:JKYF1:1,2016-01-14T05:00:00Z,25.0530,-80.9040,1.5,36.37,1111122 
ENP,ioos.station.NOAA.NDBC:JKYF1:1,2016-01-14T06:00:00Z,25.0530,-80.9040,1.5,36.38,1111122 
ENP,ioos.station.NOAA.NDBC:JKYF1:1,2016-01-14T07:00:00Z,25.0530,-80.9040,1.5,36.4,1111122 
ENP,ioos.station.NOAA.NDBC:JKYF1:1,2016-01-14T08:00:00Z,25.0530,-80.9040,1.5,36.43,1111122 
ENP,ioos.station.NOAA.NDBC:JKYF1:1,2016-01-14T09:00:00Z,25.0530,-80.9040,1.5,36.44,1111122 
ENP,ioos.station.NOAA.NDBC:JKYF1:1,2016-01-14T11:00:00Z,25.0530,-80.9040,1.5,36.37,1111122 
ENP,ioos.station.NOAA.NDBC:JKYF1:1,2016-01-14T12:00:00Z,25.0530,-80.9040,1.5,36.31,1111122 
ENP,ioos.station.NOAA.NDBC:JKYF1:1,2016-01-14T13:00:00Z,25.0530,-80.9040,1.5,36.25,1111122 
ENP,ioos.station.NOAA.NDBC:JKYF1:1,2016-01-14T14:00:00Z,25.0530,-80.9040,1.5,36.2,1111122 
ENP,ioos.station.NOAA.NDBC:JKYF1:1,2016-01-14T15:00:00Z,25.0530,-80.9040,1.5,36.21,1111122 
ENP,ioos.station.NOAA.NDBC:JKYF1:1,2016-01-14T16:00:00Z,25.0530,-80.9040,1.5,36.21,1111122 
ENP,ioos.station.NOAA.NDBC:JKYF1:1,2016-01-14T17:00:00Z,25.0530,-80.9040,1.5,36.22,1111122 
ENP,ioos.station.NOAA.NDBC:JKYF1:1,2016-01-14T18:00:00Z,25.0530,-80.9040,1.5,36.22,1111122 
ENP,ioos.station.NOAA.NDBC:JKYF1:1,2016-01-14T19:00:00Z,25.0530,-80.9040,1.5,36.2,1111122 
ENP,ioos.station.NOAA.NDBC:JKYF1:1,2016-01-14T20:00:00Z,25.0530,-80.9040,1.5,36.2,1111122 
ENP,ioos.station.NOAA.NDBC:JKYF1:1,2016-01-14T21:00:00Z,25.0530,-80.9040,1.5,36.2,1111122 
ENP,ioos.station.NOAA.NDBC:JKYF1:1,2016-01-14T22:00:00Z,25.0530,-80.9040,1.5,36.2,1111122 
ENP,ioos.station.NOAA.NDBC:JKYF1:1,2016-01-14T23:00:00Z,25.0530,-80.9040,1.5,36.18,1111122 
ENP,ioos.station.NOAA.NDBC:JKYF1:1,2016-01-15T00:00:00Z,25.0530,-80.9040,1.5,36.19,1111122 
ENP,ioos.station.NOAA.NDBC:JKYF1:1,2016-01-15T01:00:00Z,25.0530,-80.9040,1.5,36.16,1111122 
ENP,ioos.station.NOAA.NDBC:JKYF1:1,2016-01-15T02:00:00Z,25.0530,-80.9040,1.5,36.11,1111122 
ENP,ioos.station.NOAA.NDBC:JKYF1:1,2016-01-15T03:00:00Z,25.0530,-80.9040,1.5,36.03,1111122 
ENP,ioos.station.NOAA.NDBC:JKYF1:1,2016-01-15T04:00:00Z,25.0530,-80.9040,1.5,35.97,1111122 
ENP,ioos.station.NOAA.NDBC:JKYF1:1,2016-01-15T06:00:00Z,25.0530,-80.9040,1.5,36.02,1111122 
ENP,ioos.station.NOAA.NDBC:JKYF1:1,2016-01-15T07:00:00Z,25.0530,-80.9040,1.5,36.05,1111122 
ENP,ioos.station.NOAA.NDBC:JKYF1:1,2016-01-15T08:00:00Z,25.0530,-80.9040,1.5,36.08,1111122 
ENP,ioos.station.NOAA.NDBC:JKYF1:1,2016-01-15T09:00:00Z,25.0530,-80.9040,1.5,36.09,1111122 
ENP,ioos.station.NOAA.NDBC:JKYF1:1,2016-01-15T11:00:00Z,25.0530,-80.9040,1.5,36.11,1111122 
ENP,ioos.station.NOAA.NDBC:JKYF1:1,2016-01-15T12:00:00Z,25.0530,-80.9040,1.5,36.08,1111122 
ENP,ioos.station.NOAA.NDBC:JKYF1:1,2016-01-15T13:00:00Z,25.0530,-80.9040,1.5,36.04,1111122 
ENP,ioos.station.NOAA.NDBC:JKYF1:1,2016-01-15T15:00:00Z,25.0530,-80.9040,1.5,36.02,1111122 
ENP,ioos.station.NOAA.NDBC:JKYF1:1,2016-01-15T16:00:00Z,25.0530,-80.9040,1.5,35.99,1111122 
ENP,ioos.station.NOAA.NDBC:JKYF1:1,2016-01-15T17:00:00Z,25.0530,-80.9040,1.5,35.92,1111122 
ENP,ioos.station.NOAA.NDBC:JKYF1:1,2016-01-15T18:00:00Z,25.0530,-80.9040,1.5,35.84,1111122 
ENP,ioos.station.NOAA.NDBC:JKYF1:1,2016-01-15T19:00:00Z,25.0530,-80.9040,1.5,35.71,1111122 
ENP,ioos.station.NOAA.NDBC:JKYF1:1,2016-01-16T01:00:00Z,25.0530,-80.9040,1.5,35.45,1111122 
ENP,ioos.station.NOAA.NDBC:JKYF1:1,2016-01-16T04:00:00Z,25.0530,-80.9040,1.5,35.45,1111122 
ENP,ioos.station.NOAA.NDBC:JKYF1:1,2016-01-16T06:00:00Z,25.0530,-80.9040,1.5,35.44,1111122 
ENP,ioos.station.NOAA.NDBC:JKYF1:1,2016-01-16T07:00:00Z,25.0530,-80.9040,1.5,35.43,1111122 
ENP,ioos.station.NOAA.NDBC:JKYF1:1,2016-01-16T08:00:00Z,25.0530,-80.9040,1.5,35.44,1111122 
ENP,ioos.station.NOAA.NDBC:JKYF1:1,2016-01-16T09:00:00Z,25.0530,-80.9040,1.5,35.45,1111122 
ENP,ioos.station.NOAA.NDBC:JKYF1:1,2016-01-16T11:00:00Z,25.0530,-80.9040,1.5,35.45,1111122 
ENP,ioos.station.NOAA.NDBC:JKYF1:1,2016-01-16T14:00:00Z,25.0530,-80.9040,1.5,35.4,1111122 
ENP,ioos.station.NOAA.NDBC:JKYF1:1,2016-01-16T16:00:00Z,25.0530,-80.9040,1.5,35.39,1111122 
ENP,ioos.station.NOAA.NDBC:JKYF1:1,2016-01-16T18:00:00Z,25.0530,-80.9040,1.5,35.37,1111122 
ENP,ioos.station.NOAA.NDBC:JKYF1:1,2016-01-17T00:00:00Z,25.0530,-80.9040,1.5,35.48,1111122 
ENP,ioos.station.NOAA.NDBC:JKYF1:1,2016-01-17T01:00:00Z,25.0530,-80.9040,1.5,35.49,1111122 
ENP,ioos.station.NOAA.NDBC:JKYF1:1,2016-01-17T02:00:00Z,25.0530,-80.9040,1.5,35.48,1111122 
ENP,ioos.station.NOAA.NDBC:JKYF1:1,2016-01-17T03:00:00Z,25.0530,-80.9040,1.5,35.45,1111122 
ENP,ioos.station.NOAA.NDBC:JKYF1:1,2016-01-17T04:00:00Z,25.0530,-80.9040,1.5,35.45,1111122 
ENP,ioos.station.NOAA.NDBC:JKYF1:1,2016-01-17T07:00:00Z,25.0530,-80.9040,1.5,35.45,1111122 
ENP,ioos.station.NOAA.NDBC:JKYF1:1,2016-01-17T08:00:00Z,25.0530,-80.9040,1.5,35.46,1111122 
ENP,ioos.station.NOAA.NDBC:JKYF1:1,2016-01-17T09:00:00Z,25.0530,-80.9040,1.5,35.46,1111122 
ENP,ioos.station.NOAA.NDBC:JKYF1:1,2016-01-17T11:00:00Z,25.0530,-80.9040,1.5,35.46,1111122 
ENP,ioos.station.NOAA.NDBC:JKYF1:1,2016-01-17T12:00:00Z,25.0530,-80.9040,1.5,35.47,1111122 
ENP,ioos.station.NOAA.NDBC:JKYF1:1,2016-01-17T13:00:00Z,25.0530,-80.9040,1.5,35.37,1111122 
ENP,ioos.station.NOAA.NDBC:JKYF1:1,2016-01-17T14:00:00Z,25.0530,-80.9040,1.5,35.35,1111122 
ENP,ioos.station.NOAA.NDBC:JKYF1:1,2016-01-17T15:00:00Z,25.0530,-80.9040,1.5,35.11,1111122 
ENP,ioos.station.NOAA.NDBC:JKYF1:1,2016-01-17T16:00:00Z,25.0530,-80.9040,1.5,34.7,1111122 
ENP,ioos.station.NOAA.NDBC:JKYF1:1,2016-01-17T17:00:00Z,25.0530,-80.9040,1.5,34.7,1111122 
ENP,ioos.station.NOAA.NDBC:JKYF1:1,2016-01-17T18:00:00Z,25.0530,-80.9040,1.5,34.67,1111122 
ENP,ioos.station.NOAA.NDBC:JKYF1:1,2016-01-17T19:00:00Z,25.0530,-80.9040,1.5,34.65,1111122 
ENP,ioos.station.NOAA.NDBC:JKYF1:1,2016-01-17T21:00:00Z,25.0530,-80.9040,1.5,34.47,1111122 
ENP,ioos.station.NOAA.NDBC:JKYF1:1,2016-01-18T01:00:00Z,25.0530,-80.9040,1.5,34.34,1111122 
ENP,ioos.station.NOAA.NDBC:JKYF1:1,2016-01-18T02:00:00Z,25.0530,-80.9040,1.5,34.34,1111122 
ENP,ioos.station.NOAA.NDBC:JKYF1:1,2016-01-18T03:00:00Z,25.0530,-80.9040,1.5,34.33,1111122 
ENP,ioos.station.NOAA.NDBC:JKYF1:1,2016-01-18T04:00:00Z,25.0530,-80.9040,1.5,34.36,1111122 
ENP,ioos.station.NOAA.NDBC:JKYF1:1,2016-01-18T06:00:00Z,25.0530,-80.9040,1.5,34.42,1111122 
ENP,ioos.station.NOAA.NDBC:JKYF1:1,2016-01-18T07:00:00Z,25.0530,-80.9040,1.5,34.46,1111122 
ENP,ioos.station.NOAA.NDBC:JKYF1:1,2016-01-18T08:00:00Z,25.0530,-80.9040,1.5,34.51,1111122 
ENP,ioos.station.NOAA.NDBC:JKYF1:1,2016-01-18T09:00:00Z,25.0530,-80.9040,1.5,34.56,1111122 
ENP,ioos.station.NOAA.NDBC:JKYF1:1,2016-01-18T11:00:00Z,25.0530,-80.9040,1.5,34.63,1111122 
ENP,ioos.station.NOAA.NDBC:JKYF1:1,2016-01-18T12:00:00Z,25.0530,-80.9040,1.5,34.65,1111122 
ENP,ioos.station.NOAA.NDBC:JKYF1:1,2016-01-18T13:00:00Z,25.0530,-80.9040,1.5,34.69,1111122 
ENP,ioos.station.NOAA.NDBC:JKYF1:1,2016-01-18T14:00:00Z,25.0530,-80.9040,1.5,34.72,1111122 
ENP,ioos.station.NOAA.NDBC:JKYF1:1,2016-01-18T15:00:00Z,25.0530,-80.9040,1.5,34.72,1111122 
ENP,ioos.station.NOAA.NDBC:JKYF1:1,2016-01-18T17:00:00Z,25.0530,-80.9040,1.5,34.7,1111122 
ENP,ioos.station.NOAA.NDBC:JKYF1:1,2016-01-18T18:00:00Z,25.0530,-80.9040,1.5,34.71,1111122 
ENP,ioos.station.NOAA.NDBC:JKYF1:1,2016-01-18T19:00:00Z,25.0530,-80.9040,1.5,34.71,1111122 
ENP,ioos.station.NOAA.NDBC:JKYF1:1,2016-01-19T00:00:00Z,25.0530,-80.9040,1.5,34.78,1111122 
ENP,ioos.station.NOAA.NDBC:JKYF1:1,2016-01-19T01:00:00Z,25.0530,-80.9040,1.5,34.81,1111122 
ENP,ioos.station.NOAA.NDBC:JKYF1:1,2016-01-19T04:00:00Z,25.0530,-80.9040,1.5,34.86,1111122 
ENP,ioos.station.NOAA.NDBC:JKYF1:1,2016-01-19T06:00:00Z,25.0530,-80.9040,1.5,34.71,1111122 
ENP,ioos.station.NOAA.NDBC:JKYF1:1,2016-01-19T07:00:00Z,25.0530,-80.9040,1.5,34.69,1111122 
ENP,ioos.station.NOAA.NDBC:JKYF1:1,2016-01-19T08:00:00Z,25.0530,-80.9040,1.5,34.7,1111122 
ENP,ioos.station.NOAA.NDBC:JKYF1:1,2016-01-19T09:00:00Z,25.0530,-80.9040,1.5,34.72,1111122 
ENP,ioos.station.NOAA.NDBC:JKYF1:1,2016-01-19T11:00:00Z,25.0530,-80.9040,1.5,34.75,1111122 